Time,TemperatureF,DewpointF,PressureIn,WindDirection,WindDirectionDegrees,WindSpeedMPH,WindSpeedGustMPH,Humidity,HourlyPrecipIn,Conditions,Clouds,dailyrainin,SoftwareType,DateUTC
2013-04-23 00:00:00,43.0,32.0,30.42,East,90,10.0,16.0,64,0.00,,,0.00,Rainwise IP-100,2013-04-23 04:00:00,
2013-04-23 00:01:00,43.0,32.0,30.42,ESE,112,0.0,16.0,64,0.00,,,0.00,Rainwise IP-100,2013-04-23 04:01:00,
2013-04-23 00:06:00,42.0,31.0,30.42,East,90,9.0,15.0,64,0.00,,,0.00,Rainwise IP-100,2013-04-23 04:06:00,
2013-04-23 00:11:00,42.0,32.0,30.42,East,90,10.0,15.0,65,0.00,,,0.00,Rainwise IP-100,2013-04-23 04:11:00,
2013-04-23 00:16:00,42.0,32.0,30.42,East,90,6.0,13.0,65,0.00,,,0.00,Rainwise IP-100,2013-04-23 04:16:00,
2013-04-23 00:21:00,42.0,32.0,30.42,ESE,112,7.0,11.0,65,0.00,,,0.00,Rainwise IP-100,2013-04-23 04:21:00,
2013-04-23 00:26:00,42.0,32.0,30.42,ESE,112,6.0,13.0,65,0.00,,,0.00,Rainwise IP-100,2013-04-23 04:26:00,
2013-04-23 00:31:00,42.0,32.0,30.42,East,90,11.0,11.0,65,0.00,,,0.00,Rainwise IP-100,2013-04-23 04:31:00,
2013-04-23 00:36:00,41.0,31.0,30.42,ESE,112,0.0,13.0,66,0.00,,,0.00,Rainwise IP-100,2013-04-23 04:36:00,
2013-04-23 00:41:00,41.0,31.0,30.42,East,90,8.0,13.0,66,0.00,,,0.00,Rainwise IP-100,2013-04-23 04:41:00,
2013-04-23 00:46:00,41.0,31.0,30.41,ESE,112,8.0,10.0,66,0.00,,,0.00,Rainwise IP-100,2013-04-23 04:46:00,
2013-04-23 00:51:00,41.0,31.0,30.41,East,90,11.0,11.0,66,0.00,,,0.00,Rainwise IP-100,2013-04-23 04:51:00,
2013-04-23 00:56:00,41.0,31.0,30.41,ESE,112,8.0,13.0,66,0.00,,,0.00,Rainwise IP-100,2013-04-23 04:56:00,
2013-04-23 01:01:00,41.0,32.0,30.41,East,90,6.0,10.0,68,0.00,,,0.00,Rainwise IP-100,2013-04-23 05:01:00,
2013-04-23 01:06:00,40.0,31.0,30.40,East,90,3.0,7.0,68,0.00,,,0.00,Rainwise IP-100,2013-04-23 05:06:00,
2013-04-23 01:11:00,40.0,31.0,30.40,East,90,0.0,6.0,68,0.00,,,0.00,Rainwise IP-100,2013-04-23 05:11:00,
2013-04-23 01:16:00,40.0,31.0,30.40,East,90,6.0,9.0,68,0.00,,,0.00,Rainwise IP-100,2013-04-23 05:16:00,
2013-04-23 01:21:00,40.0,32.0,30.40,East,90,6.0,8.0,70,0.00,,,0.00,Rainwise IP-100,2013-04-23 05:21:00,
2013-04-23 01:26:00,39.0,31.0,30.39,East,90,5.0,8.0,70,0.00,,,0.00,Rainwise IP-100,2013-04-23 05:26:00,
2013-04-23 01:31:00,39.0,31.0,30.39,ENE,67,4.0,9.0,70,0.00,,,0.00,Rainwise IP-100,2013-04-23 05:31:00,
2013-04-23 01:36:00,39.0,31.0,30.39,East,90,6.0,8.0,70,0.00,,,0.00,Rainwise IP-100,2013-04-23 05:36:00,
2013-04-23 01:41:00,39.0,31.0,30.39,East,90,7.0,7.0,70,0.00,,,0.00,Rainwise IP-100,2013-04-23 05:41:00,
2013-04-23 01:46:00,39.0,31.0,30.39,East,90,0.0,11.0,69,0.00,,,0.00,Rainwise IP-100,2013-04-23 05:46:00,
2013-04-23 01:51:00,39.0,29.0,30.39,East,90,5.0,13.0,67,0.00,,,0.00,Rainwise IP-100,2013-04-23 05:51:00,
2013-04-23 01:56:00,39.0,29.0,30.38,East,90,5.0,11.0,67,0.00,,,0.00,Rainwise IP-100,2013-04-23 05:56:00,
2013-04-23 02:01:00,39.0,29.0,30.38,East,90,6.0,11.0,66,0.00,,,0.00,Rainwise IP-100,2013-04-23 06:01:00,
2013-04-23 02:06:00,38.0,28.0,30.38,East,90,7.0,15.0,67,0.00,,,0.00,Rainwise IP-100,2013-04-23 06:06:00,
2013-04-23 02:11:00,38.0,29.0,30.38,East,90,5.0,14.0,68,0.00,,,0.00,Rainwise IP-100,2013-04-23 06:11:00,
2013-04-23 02:16:00,38.0,29.0,30.38,East,90,3.0,8.0,70,0.00,,,0.00,Rainwise IP-100,2013-04-23 06:16:00,
2013-04-23 02:21:00,38.0,29.0,30.38,East,90,0.0,6.0,69,0.00,,,0.00,Rainwise IP-100,2013-04-23 06:21:00,
2013-04-23 02:26:00,37.0,29.0,30.38,ENE,67,3.0,6.0,72,0.00,,,0.00,Rainwise IP-100,2013-04-23 06:26:00,
2013-04-23 02:31:00,37.0,29.0,30.37,ENE,67,5.0,5.0,74,0.00,,,0.00,Rainwise IP-100,2013-04-23 06:31:00,
2013-04-23 02:36:00,37.0,29.0,30.37,East,90,4.0,10.0,73,0.00,,,0.00,Rainwise IP-100,2013-04-23 06:36:00,
2013-04-23 02:41:00,37.0,29.0,30.37,East,90,5.0,8.0,73,0.00,,,0.00,Rainwise IP-100,2013-04-23 06:41:00,
2013-04-23 02:46:00,36.0,29.0,30.37,East,90,5.0,8.0,74,0.00,,,0.00,Rainwise IP-100,2013-04-23 06:46:00,
2013-04-23 02:51:00,36.0,29.0,30.36,East,90,5.0,8.0,74,0.00,,,0.00,Rainwise IP-100,2013-04-23 06:51:00,
2013-04-23 02:56:00,36.0,29.0,30.36,East,90,0.0,6.0,75,0.00,,,0.00,Rainwise IP-100,2013-04-23 06:56:00,
2013-04-23 03:01:00,36.0,29.0,30.36,East,90,2.0,5.0,76,0.00,,,0.00,Rainwise IP-100,2013-04-23 07:01:00,
2013-04-23 03:06:00,36.0,29.0,30.36,East,90,4.0,5.0,76,0.00,,,0.00,Rainwise IP-100,2013-04-23 07:06:00,
2013-04-23 03:11:00,35.0,29.0,30.36,ENE,67,5.0,5.0,79,0.00,,,0.00,Rainwise IP-100,2013-04-23 07:11:00,
2013-04-23 03:16:00,35.0,28.0,30.36,ENE,67,6.0,8.0,77,0.00,,,0.00,Rainwise IP-100,2013-04-23 07:16:00,
2013-04-23 03:21:00,35.0,29.0,30.36,East,90,5.0,7.0,78,0.00,,,0.00,Rainwise IP-100,2013-04-23 07:21:00,
2013-04-23 03:26:00,35.0,29.0,30.35,ENE,67,5.0,8.0,79,0.00,,,0.00,Rainwise IP-100,2013-04-23 07:26:00,
2013-04-23 03:31:00,35.0,29.0,30.35,ENE,67,0.0,9.0,78,0.00,,,0.00,Rainwise IP-100,2013-04-23 07:31:00,
2013-04-23 03:36:00,35.0,29.0,30.35,ENE,67,8.0,11.0,78,0.00,,,0.00,Rainwise IP-100,2013-04-23 07:36:00,
2013-04-23 03:41:00,35.0,28.0,30.35,East,90,8.0,10.0,77,0.00,,,0.00,Rainwise IP-100,2013-04-23 07:41:00,
2013-04-23 03:46:00,35.0,28.0,30.34,ENE,67,7.0,11.0,77,0.00,,,0.00,Rainwise IP-100,2013-04-23 07:46:00,
2013-04-23 03:51:00,35.0,28.0,30.34,East,90,8.0,11.0,77,0.00,,,0.00,Rainwise IP-100,2013-04-23 07:51:00,
2013-04-23 03:56:00,35.0,28.0,30.35,East,90,8.0,11.0,77,0.00,,,0.00,Rainwise IP-100,2013-04-23 07:56:00,
2013-04-23 04:01:00,35.0,28.0,30.35,East,90,7.0,13.0,76,0.00,,,0.00,Rainwise IP-100,2013-04-23 08:01:00,
2013-04-23 04:06:00,35.0,28.0,30.34,East,90,0.0,11.0,77,0.00,,,0.00,Rainwise IP-100,2013-04-23 08:06:00,
2013-04-23 04:11:00,35.0,28.0,30.34,East,90,9.0,12.0,77,0.00,,,0.00,Rainwise IP-100,2013-04-23 08:11:00,
2013-04-23 04:16:00,35.0,28.0,30.34,East,90,10.0,13.0,76,0.00,,,0.00,Rainwise IP-100,2013-04-23 08:16:00,
2013-04-23 04:21:00,35.0,28.0,30.34,East,90,10.0,12.0,75,0.00,,,0.00,Rainwise IP-100,2013-04-23 08:21:00,
2013-04-23 04:26:00,35.0,28.0,30.34,East,90,15.0,15.0,76,0.00,,,0.00,Rainwise IP-100,2013-04-23 08:26:00,
2013-04-23 04:31:00,35.0,28.0,30.34,East,90,5.0,17.0,76,0.00,,,0.00,Rainwise IP-100,2013-04-23 08:31:00,
2013-04-23 04:36:00,35.0,28.0,30.34,East,90,7.0,12.0,76,0.00,,,0.00,Rainwise IP-100,2013-04-23 08:36:00,
2013-04-23 04:41:00,35.0,28.0,30.34,ENE,67,6.0,11.0,76,0.00,,,0.00,Rainwise IP-100,2013-04-23 08:41:00,
2013-04-23 04:46:00,35.0,28.0,30.34,East,90,6.0,10.0,77,0.00,,,0.00,Rainwise IP-100,2013-04-23 08:46:00,
2013-04-23 04:51:00,35.0,28.0,30.34,ENE,67,7.0,11.0,77,0.00,,,0.00,Rainwise IP-100,2013-04-23 08:51:00,
2013-04-23 04:56:00,34.0,29.0,30.34,East,90,6.0,11.0,78,0.00,,,0.00,Rainwise IP-100,2013-04-23 08:56:00,
2013-04-23 05:01:00,34.0,28.0,30.34,ENE,67,9.0,10.0,77,0.00,,,0.00,Rainwise IP-100,2013-04-23 09:01:00,
2013-04-23 05:06:00,34.0,29.0,30.34,ENE,67,8.0,10.0,78,0.00,,,0.00,Rainwise IP-100,2013-04-23 09:06:00,
2013-04-23 05:11:00,34.0,29.0,30.34,ENE,67,5.0,8.0,79,0.00,,,0.00,Rainwise IP-100,2013-04-23 09:11:00,
2013-04-23 05:16:00,34.0,29.0,30.34,ENE,67,7.0,7.0,79,0.00,,,0.00,Rainwise IP-100,2013-04-23 09:16:00,
2013-04-23 05:21:00,34.0,29.0,30.34,ENE,67,6.0,8.0,79,0.00,,,0.00,Rainwise IP-100,2013-04-23 09:21:00,
2013-04-23 05:26:00,34.0,29.0,30.34,ENE,67,4.0,10.0,78,0.00,,,0.00,Rainwise IP-100,2013-04-23 09:26:00,
2013-04-23 05:31:00,33.0,28.0,30.34,ENE,67,4.0,6.0,79,0.00,,,0.00,Rainwise IP-100,2013-04-23 09:31:00,
2013-04-23 05:36:00,34.0,29.0,30.34,NE,45,5.0,6.0,79,0.00,,,0.00,Rainwise IP-100,2013-04-23 09:36:00,
2013-04-23 05:41:00,33.0,28.0,30.34,NE,45,4.0,6.0,79,0.00,,,0.00,Rainwise IP-100,2013-04-23 09:41:00,
2013-04-23 05:46:00,33.0,28.0,30.34,NE,45,1.0,5.0,80,0.00,,,0.00,Rainwise IP-100,2013-04-23 09:46:00,
2013-04-23 05:51:00,33.0,28.0,30.34,NE,45,2.0,5.0,81,0.00,,,0.00,Rainwise IP-100,2013-04-23 09:51:00,
2013-04-23 05:56:00,33.0,28.0,30.34,NNE,22,1.0,4.0,81,0.00,,,0.00,Rainwise IP-100,2013-04-23 09:56:00,
2013-04-23 06:01:00,33.0,29.0,30.34,NE,45,0.0,5.0,82,0.00,,,0.00,Rainwise IP-100,2013-04-23 10:01:00,
2013-04-23 06:06:00,32.0,28.0,30.34,NE,45,1.0,5.0,83,0.00,,,0.00,Rainwise IP-100,2013-04-23 10:06:00,
2013-04-23 06:11:00,32.0,28.0,30.34,NNE,22,0.0,4.0,84,0.00,,,0.00,Rainwise IP-100,2013-04-23 10:11:00,
2013-04-23 06:16:00,32.0,28.0,30.34,NNE,22,1.0,4.0,85,0.00,,,0.00,Rainwise IP-100,2013-04-23 10:16:00,
2013-04-23 06:21:00,32.0,28.0,30.34,NNE,22,0.0,5.0,85,0.00,,,0.00,Rainwise IP-100,2013-04-23 10:21:00,
2013-04-23 06:26:00,32.0,28.0,30.34,NNE,22,4.0,5.0,85,0.00,,,0.00,Rainwise IP-100,2013-04-23 10:26:00,
2013-04-23 06:31:00,32.0,28.0,30.34,NE,45,1.0,6.0,85,0.00,,,0.00,Rainwise IP-100,2013-04-23 10:31:00,
2013-04-23 06:36:00,32.0,28.0,30.34,NE,45,0.0,3.0,86,0.00,,,0.00,Rainwise IP-100,2013-04-23 10:36:00,
2013-04-23 06:41:00,32.0,28.0,30.34,NE,45,0.0,1.0,85,0.00,,,0.00,Rainwise IP-100,2013-04-23 10:41:00,
2013-04-23 06:46:00,32.0,28.0,30.34,NE,45,0.0,1.0,85,0.00,,,0.00,Rainwise IP-100,2013-04-23 10:46:00,
2013-04-23 06:51:00,32.0,28.0,30.34,NNE,22,0.0,0.0,86,0.00,,,0.00,Rainwise IP-100,2013-04-23 10:51:00,
2013-04-23 06:56:00,33.0,29.0,30.34,NNE,22,4.0,4.0,85,0.00,,,0.00,Rainwise IP-100,2013-04-23 10:56:00,
2013-04-23 07:01:00,34.0,31.0,30.33,NNE,22,1.0,5.0,83,0.00,,,0.00,Rainwise IP-100,2013-04-23 11:01:00,
2013-04-23 07:06:00,35.0,29.0,30.33,NE,45,0.0,4.0,81,0.00,,,0.00,Rainwise IP-100,2013-04-23 11:06:00,
2013-04-23 07:11:00,36.0,31.0,30.33,NE,45,0.0,1.0,81,0.00,,,0.00,Rainwise IP-100,2013-04-23 11:11:00,
2013-04-23 07:16:00,37.0,31.0,30.33,NE,45,1.0,2.0,79,0.00,,,0.00,Rainwise IP-100,2013-04-23 11:16:00,
2013-04-23 07:21:00,38.0,31.0,30.33,North,360,1.0,3.0,76,0.00,,,0.00,Rainwise IP-100,2013-04-23 11:21:00,
2013-04-23 07:26:00,39.0,31.0,30.33,North,360,2.0,6.0,70,0.00,,,0.00,Rainwise IP-100,2013-04-23 11:26:00,
2013-04-23 07:31:00,41.0,31.0,30.32,NNE,22,5.0,8.0,65,0.00,,,0.00,Rainwise IP-100,2013-04-23 11:31:00,
2013-04-23 07:36:00,41.0,29.0,30.32,North,360,4.0,10.0,62,0.00,,,0.00,Rainwise IP-100,2013-04-23 11:36:00,
2013-04-23 07:41:00,40.0,29.0,30.32,North,360,6.0,10.0,63,0.00,,,0.00,Rainwise IP-100,2013-04-23 11:41:00,
2013-04-23 07:45:00,39.0,28.0,30.32,NE,45,5.0,7.0,64,0.00,,,0.00,Rainwise IP-100,2013-04-23 11:45:00,
2013-04-23 07:50:00,39.0,29.0,30.33,NNE,22,3.0,7.0,66,0.00,,,0.00,Rainwise IP-100,2013-04-23 11:50:00,
2013-04-23 07:55:00,39.0,29.0,30.32,NE,45,2.0,8.0,66,0.00,,,0.00,Rainwise IP-100,2013-04-23 11:55:00,
2013-04-23 08:00:00,38.0,28.0,30.32,NNE,22,0.0,9.0,67,0.00,,,0.00,Rainwise IP-100,2013-04-23 12:00:00,
2013-04-23 08:05:00,38.0,29.0,30.32,NE,45,1.0,7.0,69,0.00,,,0.00,Rainwise IP-100,2013-04-23 12:05:00,
2013-04-23 08:10:00,38.0,29.0,30.32,NW,315,2.0,7.0,69,0.00,,,0.00,Rainwise IP-100,2013-04-23 12:10:00,
2013-04-23 08:15:00,38.0,29.0,30.32,NNW,337,2.0,6.0,70,0.00,,,0.00,Rainwise IP-100,2013-04-23 12:15:00,
2013-04-23 08:20:00,38.0,29.0,30.32,NNW,337,5.0,8.0,70,0.00,,,0.00,Rainwise IP-100,2013-04-23 12:20:00,
2013-04-23 08:25:00,38.0,29.0,30.32,NW,315,2.0,8.0,70,0.00,,,0.00,Rainwise IP-100,2013-04-23 12:25:00,
2013-04-23 08:30:00,38.0,29.0,30.32,North,360,2.0,8.0,71,0.00,,,0.00,Rainwise IP-100,2013-04-23 12:30:00,
2013-04-23 08:35:00,38.0,29.0,30.32,North,360,0.0,8.0,69,0.00,,,0.00,Rainwise IP-100,2013-04-23 12:35:00,
2013-04-23 08:40:00,38.0,29.0,30.32,NNE,22,6.0,7.0,68,0.00,,,0.00,Rainwise IP-100,2013-04-23 12:40:00,
2013-04-23 08:45:00,38.0,29.0,30.32,NW,315,2.0,9.0,68,0.00,,,0.00,Rainwise IP-100,2013-04-23 12:45:00,
2013-04-23 08:50:00,38.0,29.0,30.32,NNE,22,5.0,6.0,69,0.00,,,0.00,Rainwise IP-100,2013-04-23 12:50:00,
2013-04-23 08:55:00,38.0,29.0,30.32,North,360,2.0,7.0,69,0.00,,,0.00,Rainwise IP-100,2013-04-23 12:55:00,
2013-04-23 09:00:00,38.0,29.0,30.31,North,360,4.0,7.0,70,0.00,,,0.00,Rainwise IP-100,2013-04-23 13:00:00,
2013-04-23 09:05:00,38.0,29.0,30.31,NNW,337,2.0,9.0,69,0.00,,,0.00,Rainwise IP-100,2013-04-23 13:05:00,
2013-04-23 09:10:00,38.0,29.0,30.31,North,360,0.0,8.0,68,0.00,,,0.00,Rainwise IP-100,2013-04-23 13:10:00,
2013-04-23 09:15:00,38.0,29.0,30.31,North,360,7.0,9.0,68,0.00,,,0.00,Rainwise IP-100,2013-04-23 13:15:00,
2013-04-23 09:20:00,38.0,29.0,30.30,NNW,337,2.0,8.0,68,0.00,,,0.00,Rainwise IP-100,2013-04-23 13:20:00,
2013-04-23 09:25:00,38.0,29.0,30.30,North,360,3.0,8.0,69,0.00,,,0.00,Rainwise IP-100,2013-04-23 13:25:00,
2013-04-23 09:30:00,39.0,31.0,30.30,North,360,7.0,7.0,69,0.00,,,0.00,Rainwise IP-100,2013-04-23 13:30:00,
2013-04-23 09:35:00,39.0,31.0,30.30,North,360,6.0,8.0,69,0.00,,,0.00,Rainwise IP-100,2013-04-23 13:35:00,
2013-04-23 09:40:00,39.0,29.0,30.30,NNW,337,0.0,6.0,67,0.00,,,0.00,Rainwise IP-100,2013-04-23 13:40:00,
2013-04-23 09:45:00,39.0,29.0,30.30,NW,315,1.0,7.0,68,0.00,,,0.00,Rainwise IP-100,2013-04-23 13:45:00,
2013-04-23 09:50:00,39.0,29.0,30.30,WNW,292,4.0,6.0,68,0.00,,,0.00,Rainwise IP-100,2013-04-23 13:50:00,
2013-04-23 09:55:00,39.0,29.0,30.30,WNW,292,5.0,8.0,67,0.00,,,0.00,Rainwise IP-100,2013-04-23 13:55:00,
2013-04-23 10:00:00,39.0,29.0,30.29,NW,315,0.0,8.0,68,0.00,,,0.00,Rainwise IP-100,2013-04-23 14:00:00,
2013-04-23 10:05:00,39.0,29.0,30.29,WNW,292,5.0,7.0,67,0.00,,,0.00,Rainwise IP-100,2013-04-23 14:05:00,
2013-04-23 10:10:00,39.0,29.0,30.30,NNW,337,1.0,8.0,68,0.00,,,0.00,Rainwise IP-100,2013-04-23 14:10:00,
2013-04-23 10:15:00,40.0,31.0,30.29,NNW,337,8.0,8.0,68,0.00,,,0.00,Rainwise IP-100,2013-04-23 14:15:00,
2013-04-23 10:20:00,40.0,31.0,30.29,NNW,337,2.0,8.0,67,0.00,,,0.00,Rainwise IP-100,2013-04-23 14:20:00,
2013-04-23 10:25:00,40.0,31.0,30.29,NW,315,3.0,6.0,66,0.00,,,0.00,Rainwise IP-100,2013-04-23 14:25:00,
2013-04-23 10:30:00,41.0,31.0,30.29,NW,315,6.0,6.0,66,0.00,,,0.00,Rainwise IP-100,2013-04-23 14:30:00,
2013-04-23 10:35:00,41.0,31.0,30.29,NNE,22,1.0,7.0,67,0.00,,,0.00,Rainwise IP-100,2013-04-23 14:35:00,
2013-04-23 10:40:00,41.0,31.0,30.29,NW,315,5.0,6.0,66,0.00,,,0.00,Rainwise IP-100,2013-04-23 14:40:00,
2013-04-23 10:45:00,41.0,31.0,30.29,NW,315,4.0,8.0,66,0.00,,,0.00,Rainwise IP-100,2013-04-23 14:45:00,
2013-04-23 10:50:00,41.0,31.0,30.29,NNW,337,6.0,10.0,66,0.00,,,0.00,Rainwise IP-100,2013-04-23 14:50:00,
2013-04-23 10:55:00,41.0,31.0,30.29,WNW,292,5.0,10.0,65,0.00,,,0.00,Rainwise IP-100,2013-04-23 14:55:00,
2013-04-23 11:00:00,41.0,31.0,30.29,NW,315,5.0,7.0,66,0.00,,,0.00,Rainwise IP-100,2013-04-23 15:00:00,
2013-04-23 11:05:00,41.0,31.0,30.28,NNE,22,5.0,6.0,67,0.00,,,0.00,Rainwise IP-100,2013-04-23 15:05:00,
2013-04-23 11:10:00,42.0,32.0,30.28,WNW,292,5.0,8.0,65,0.00,,,0.00,Rainwise IP-100,2013-04-23 15:10:00,
2013-04-23 11:15:00,42.0,32.0,30.28,NW,315,2.0,8.0,65,0.00,,,0.00,Rainwise IP-100,2013-04-23 15:15:00,
2013-04-23 11:20:00,42.0,32.0,30.28,North,360,2.0,6.0,66,0.00,,,0.00,Rainwise IP-100,2013-04-23 15:20:00,
2013-04-23 11:25:00,42.0,31.0,30.28,North,360,2.0,6.0,64,0.00,,,0.00,Rainwise IP-100,2013-04-23 15:25:00,
2013-04-23 11:30:00,42.0,32.0,30.28,North,360,1.0,6.0,65,0.00,,,0.00,Rainwise IP-100,2013-04-23 15:30:00,
2013-04-23 11:35:00,43.0,32.0,30.28,NW,315,1.0,6.0,64,0.00,,,0.00,Rainwise IP-100,2013-04-23 15:35:00,
2013-04-23 11:40:00,43.0,32.0,30.27,NW,315,3.0,8.0,64,0.00,,,0.00,Rainwise IP-100,2013-04-23 15:40:00,
2013-04-23 11:45:00,43.0,32.0,30.27,NW,315,0.0,8.0,64,0.00,,,0.00,Rainwise IP-100,2013-04-23 15:45:00,
2013-04-23 11:50:00,44.0,33.0,30.26,NNE,22,0.0,4.0,64,0.00,,,0.00,Rainwise IP-100,2013-04-23 15:50:00,
2013-04-23 11:55:00,44.0,33.0,30.26,North,360,0.0,8.0,64,0.00,,,0.00,Rainwise IP-100,2013-04-23 15:55:00,
2013-04-23 12:00:00,45.0,35.0,30.26,East,90,0.0,5.0,67,0.00,,,0.00,Rainwise IP-100,2013-04-23 16:00:00,
2013-04-23 12:05:00,45.0,33.0,30.26,ENE,67,5.0,5.0,64,0.00,,,0.00,Rainwise IP-100,2013-04-23 16:05:00,
2013-04-23 12:10:00,45.0,33.0,30.26,NE,45,2.0,8.0,64,0.00,,,0.00,Rainwise IP-100,2013-04-23 16:10:00,
2013-04-23 12:15:00,45.0,35.0,30.26,NNE,22,3.0,7.0,65,0.00,,,0.00,Rainwise IP-100,2013-04-23 16:15:00,
2013-04-23 12:20:00,44.0,35.0,30.25,ENE,67,6.0,10.0,69,0.00,,,0.00,Rainwise IP-100,2013-04-23 16:20:00,
2013-04-23 12:25:00,44.0,36.0,30.25,East,90,10.0,13.0,72,0.00,,,0.00,Rainwise IP-100,2013-04-23 16:25:00,
2013-04-23 12:30:00,43.0,36.0,30.25,East,90,6.0,12.0,74,0.00,,,0.00,Rainwise IP-100,2013-04-23 16:30:00,
2013-04-23 12:35:00,44.0,37.0,30.25,East,90,5.0,11.0,75,0.00,,,0.00,Rainwise IP-100,2013-04-23 16:35:00,
2013-04-23 12:40:00,43.0,37.0,30.25,East,90,0.0,9.0,77,0.00,,,0.00,Rainwise IP-100,2013-04-23 16:40:00,
2013-04-23 12:45:00,43.0,37.0,30.24,NE,45,6.0,11.0,78,0.00,,,0.00,Rainwise IP-100,2013-04-23 16:45:00,
2013-04-23 12:50:00,42.0,37.0,30.24,ENE,67,4.0,10.0,80,0.00,,,0.00,Rainwise IP-100,2013-04-23 16:50:00,
2013-04-23 12:55:00,42.0,37.0,30.24,East,90,3.0,9.0,81,0.00,,,0.00,Rainwise IP-100,2013-04-23 16:55:00,
2013-04-23 13:00:00,42.0,37.0,30.24,ENE,67,1.0,6.0,83,0.00,,,0.00,Rainwise IP-100,2013-04-23 17:00:00,
2013-04-23 13:05:00,42.0,37.0,30.24,ENE,67,0.0,5.0,82,0.00,,,0.00,Rainwise IP-100,2013-04-23 17:05:00,
2013-04-23 13:10:00,43.0,38.0,30.24,NNE,22,0.0,6.0,83,0.00,,,0.00,Rainwise IP-100,2013-04-23 17:10:00,
2013-04-23 13:15:00,43.0,38.0,30.23,NE,45,0.0,4.0,82,0.00,,,0.00,Rainwise IP-100,2013-04-23 17:15:00,
2013-04-23 13:20:00,43.0,38.0,30.23,NE,45,0.0,3.0,81,0.00,,,0.00,Rainwise IP-100,2013-04-23 17:20:00,
2013-04-23 13:25:00,44.0,38.0,30.22,North,360,0.0,6.0,80,0.00,,,0.00,Rainwise IP-100,2013-04-23 17:25:00,
2013-04-23 13:30:00,44.0,38.0,30.22,North,360,5.0,5.0,79,0.00,,,0.00,Rainwise IP-100,2013-04-23 17:30:00,
2013-04-23 13:35:00,44.0,37.0,30.22,NNW,337,4.0,6.0,77,0.00,,,0.00,Rainwise IP-100,2013-04-23 17:35:00,
2013-04-23 13:40:00,44.0,37.0,30.22,North,360,2.0,4.0,77,0.00,,,0.00,Rainwise IP-100,2013-04-23 17:40:00,
2013-04-23 13:45:00,44.0,37.0,30.22,NE,45,3.0,5.0,77,0.00,,,0.00,Rainwise IP-100,2013-04-23 17:45:00,
2013-04-23 13:50:00,45.0,38.0,30.22,East,90,0.0,6.0,75,0.00,,,0.00,Rainwise IP-100,2013-04-23 17:50:00,
2013-04-23 13:55:00,45.0,37.0,30.22,West,270,4.0,4.0,74,0.00,,,0.00,Rainwise IP-100,2013-04-23 17:55:00,
2013-04-23 14:00:00,45.0,37.0,30.21,NW,315,1.0,10.0,74,0.00,,,0.00,Rainwise IP-100,2013-04-23 18:00:00,
2013-04-23 14:05:00,45.0,38.0,30.21,North,360,5.0,8.0,75,0.00,,,0.00,Rainwise IP-100,2013-04-23 18:05:00,
2013-04-23 14:10:00,45.0,37.0,30.20,West,270,2.0,9.0,74,0.00,,,0.00,Rainwise IP-100,2013-04-23 18:10:00,
2013-04-23 14:15:00,46.0,37.0,30.20,NW,315,8.0,11.0,72,0.00,,,0.00,Rainwise IP-100,2013-04-23 18:15:00,
2013-04-23 14:20:00,46.0,37.0,30.20,NW,315,5.0,8.0,70,0.00,,,0.00,Rainwise IP-100,2013-04-23 18:20:00,
2013-04-23 14:25:00,47.0,37.0,30.20,NW,315,0.0,6.0,70,0.00,,,0.00,Rainwise IP-100,2013-04-23 18:25:00,
2013-04-23 14:30:00,47.0,37.0,30.19,NW,315,5.0,6.0,69,0.00,,,0.00,Rainwise IP-100,2013-04-23 18:30:00,
2013-04-23 14:35:00,47.0,37.0,30.19,NNW,337,0.0,9.0,68,0.00,,,0.00,Rainwise IP-100,2013-04-23 18:35:00,
2013-04-23 14:40:00,48.0,39.0,30.19,SSW,202,1.0,6.0,71,0.00,,,0.00,Rainwise IP-100,2013-04-23 18:40:00,
2013-04-23 14:45:00,48.0,38.0,30.19,ESE,112,0.0,3.0,69,0.00,,,0.00,Rainwise IP-100,2013-04-23 18:45:00,
2013-04-23 14:50:00,49.0,39.0,30.18,NE,45,0.0,6.0,68,0.00,,,0.00,Rainwise IP-100,2013-04-23 18:50:00,
2013-04-23 14:55:00,50.0,38.0,30.18,NNE,22,5.0,11.0,65,0.00,,,0.00,Rainwise IP-100,2013-04-23 18:55:00,
2013-04-23 15:00:00,50.0,38.0,30.18,ENE,67,0.0,8.0,63,0.00,,,0.00,Rainwise IP-100,2013-04-23 19:00:00,
2013-04-23 15:05:00,50.0,39.0,30.17,NNE,22,2.0,9.0,66,0.00,,,0.00,Rainwise IP-100,2013-04-23 19:05:00,
2013-04-23 15:10:00,50.0,38.0,30.17,NW,315,6.0,9.0,63,0.00,,,0.00,Rainwise IP-100,2013-04-23 19:10:00,
2013-04-23 15:15:00,50.0,38.0,30.17,NNE,22,1.0,10.0,65,0.00,,,0.00,Rainwise IP-100,2013-04-23 19:15:00,
2013-04-23 15:20:00,51.0,39.0,30.17,West,270,3.0,7.0,63,0.00,,,0.00,Rainwise IP-100,2013-04-23 19:20:00,
2013-04-23 15:25:00,51.0,39.0,30.17,North,360,0.0,8.0,62,0.00,,,0.00,Rainwise IP-100,2013-04-23 19:25:00,
2013-04-23 15:30:00,51.0,39.0,30.17,NW,315,2.0,8.0,62,0.00,,,0.00,Rainwise IP-100,2013-04-23 19:30:00,
2013-04-23 15:35:00,52.0,39.0,30.16,NW,315,0.0,6.0,62,0.00,,,0.00,Rainwise IP-100,2013-04-23 19:35:00,
2013-04-23 15:40:00,52.0,39.0,30.16,ENE,67,6.0,6.0,62,0.00,,,0.00,Rainwise IP-100,2013-04-23 19:40:00,
2013-04-23 15:45:00,52.0,39.0,30.16,SE,135,0.0,8.0,61,0.00,,,0.00,Rainwise IP-100,2013-04-23 19:45:00,
2013-04-23 15:50:00,52.0,38.0,30.16,East,90,3.0,8.0,59,0.00,,,0.00,Rainwise IP-100,2013-04-23 19:50:00,
2013-04-23 15:55:00,52.0,38.0,30.16,NE,45,0.0,7.0,60,0.00,,,0.00,Rainwise IP-100,2013-04-23 19:55:00,
2013-04-23 16:00:00,53.0,39.0,30.15,WSW,247,4.0,4.0,61,0.00,,,0.00,Rainwise IP-100,2013-04-23 20:00:00,
2013-04-23 16:05:00,53.0,39.0,30.15,North,360,0.0,5.0,61,0.00,,,0.00,Rainwise IP-100,2013-04-23 20:05:00,
2013-04-23 16:10:00,53.0,38.0,30.15,NW,315,0.0,3.0,58,0.00,,,0.00,Rainwise IP-100,2013-04-23 20:10:00,
2013-04-23 16:15:00,54.0,41.0,30.15,SSE,157,0.0,3.0,61,0.00,,,0.00,Rainwise IP-100,2013-04-23 20:15:00,
2013-04-23 16:20:00,54.0,40.0,30.15,NW,315,0.0,1.0,60,0.00,,,0.00,Rainwise IP-100,2013-04-23 20:20:00,
2013-04-23 16:25:00,54.0,39.0,30.15,NNE,22,0.0,5.0,58,0.00,,,0.00,Rainwise IP-100,2013-04-23 20:25:00,
2013-04-23 16:30:00,54.0,39.0,30.14,SW,225,0.0,5.0,58,0.00,,,0.00,Rainwise IP-100,2013-04-23 20:30:00,
2013-04-23 16:35:00,54.0,40.0,30.14,SSW,202,1.0,2.0,59,0.00,,,0.00,Rainwise IP-100,2013-04-23 20:35:00,
2013-04-23 16:40:00,54.0,39.0,30.14,NW,315,0.0,2.0,58,0.00,,,0.00,Rainwise IP-100,2013-04-23 20:40:00,
2013-04-23 16:45:00,54.0,39.0,30.14,WSW,247,0.0,4.0,58,0.00,,,0.00,Rainwise IP-100,2013-04-23 20:45:00,
2013-04-23 16:50:00,53.0,38.0,30.14,WNW,292,1.0,9.0,58,0.00,,,0.00,Rainwise IP-100,2013-04-23 20:50:00,
2013-04-23 16:55:00,53.0,39.0,30.14,West,270,2.0,5.0,59,0.00,,,0.00,Rainwise IP-100,2013-04-23 20:55:00,
2013-04-23 17:00:00,53.0,39.0,30.14,NNW,337,0.0,8.0,61,0.00,,,0.00,Rainwise IP-100,2013-04-23 21:00:00,
2013-04-23 17:05:00,53.0,39.0,30.14,West,270,3.0,8.0,59,0.00,,,0.00,Rainwise IP-100,2013-04-23 21:05:00,
2013-04-23 17:10:00,52.0,38.0,30.14,NW,315,2.0,8.0,59,0.00,,,0.00,Rainwise IP-100,2013-04-23 21:10:00,
2013-04-23 17:15:00,52.0,38.0,30.15,WNW,292,1.0,10.0,59,0.00,,,0.00,Rainwise IP-100,2013-04-23 21:15:00,
2013-04-23 17:20:00,51.0,38.0,30.15,NW,315,0.0,7.0,61,0.00,,,0.00,Rainwise IP-100,2013-04-23 21:20:00,
2013-04-23 17:25:00,51.0,38.0,30.15,NW,315,4.0,6.0,60,0.00,,,0.00,Rainwise IP-100,2013-04-23 21:25:00,
2013-04-23 17:30:00,51.0,38.0,30.15,WNW,292,10.0,10.0,60,0.00,,,0.00,Rainwise IP-100,2013-04-23 21:30:00,
2013-04-23 17:35:00,51.0,39.0,30.15,WNW,292,3.0,10.0,62,0.00,,,0.00,Rainwise IP-100,2013-04-23 21:35:00,
2013-04-23 17:40:00,51.0,39.0,30.15,WNW,292,1.0,6.0,63,0.00,,,0.00,Rainwise IP-100,2013-04-23 21:40:00,
2013-04-23 17:45:00,51.0,39.0,30.14,West,270,3.0,6.0,63,0.00,,,0.00,Rainwise IP-100,2013-04-23 21:45:00,
2013-04-23 17:50:00,51.0,39.0,30.14,NNW,337,0.0,4.0,63,0.00,,,0.00,Rainwise IP-100,2013-04-23 21:50:00,
2013-04-23 17:55:00,51.0,39.0,30.14,NW,315,0.0,3.0,63,0.00,,,0.00,Rainwise IP-100,2013-04-23 21:55:00,
2013-04-23 18:00:00,51.0,39.0,30.14,NW,315,0.0,2.0,62,0.00,,,0.00,Rainwise IP-100,2013-04-23 22:00:00,
2013-04-23 18:05:00,51.0,39.0,30.13,North,360,0.0,5.0,62,0.00,,,0.00,Rainwise IP-100,2013-04-23 22:05:00,
2013-04-23 18:10:00,51.0,39.0,30.13,NE,45,2.0,4.0,62,0.00,,,0.00,Rainwise IP-100,2013-04-23 22:10:00,
2013-04-23 18:15:00,51.0,39.0,30.11,ESE,112,6.0,6.0,62,0.00,,,0.00,Rainwise IP-100,2013-04-23 22:15:00,
2013-04-23 18:20:00,51.0,38.0,30.10,East,90,8.0,10.0,61,0.00,,,0.00,Rainwise IP-100,2013-04-23 22:20:00,
2013-04-23 18:25:00,51.0,39.0,30.10,East,90,6.0,9.0,62,0.00,,,0.00,Rainwise IP-100,2013-04-23 22:25:00,
2013-04-23 18:30:00,51.0,39.0,30.10,NE,45,5.0,8.0,63,0.00,,,0.00,Rainwise IP-100,2013-04-23 22:30:00,
2013-04-23 18:35:00,51.0,39.0,30.10,East,90,3.0,7.0,63,0.00,,,0.00,Rainwise IP-100,2013-04-23 22:35:00,
2013-04-23 18:40:00,51.0,40.0,30.10,East,90,3.0,5.0,65,0.00,,,0.00,Rainwise IP-100,2013-04-23 22:40:00,
2013-04-23 18:45:00,51.0,39.0,30.10,East,90,0.0,6.0,63,0.00,,,0.00,Rainwise IP-100,2013-04-23 22:45:00,
2013-04-23 18:50:00,51.0,39.0,30.10,ENE,67,0.0,0.0,63,0.00,,,0.00,Rainwise IP-100,2013-04-23 22:50:00,
2013-04-23 18:55:00,51.0,39.0,30.10,NE,45,0.0,0.0,63,0.00,,,0.00,Rainwise IP-100,2013-04-23 22:55:00,
2013-04-23 19:00:00,51.0,39.0,30.11,North,360,0.0,0.0,63,0.00,,,0.00,Rainwise IP-100,2013-04-23 23:00:00,
2013-04-23 19:05:00,51.0,39.0,30.11,NNE,22,1.0,2.0,62,0.00,,,0.00,Rainwise IP-100,2013-04-23 23:05:00,
2013-04-23 19:10:00,51.0,39.0,30.11,NNE,22,1.0,2.0,62,0.00,,,0.00,Rainwise IP-100,2013-04-23 23:10:00,
2013-04-23 19:15:00,51.0,39.0,30.11,NNE,22,2.0,2.0,62,0.00,,,0.00,Rainwise IP-100,2013-04-23 23:15:00,
2013-04-23 19:20:00,51.0,39.0,30.11,NNE,22,1.0,2.0,62,0.00,,,0.00,Rainwise IP-100,2013-04-23 23:20:00,
2013-04-23 19:25:00,50.0,38.0,30.10,NNW,337,1.0,2.0,65,0.00,,,0.00,Rainwise IP-100,2013-04-23 23:25:00,
2013-04-23 19:30:00,50.0,38.0,30.10,North,360,0.0,2.0,65,0.00,,,0.00,Rainwise IP-100,2013-04-23 23:30:00,
2013-04-23 19:35:00,50.0,38.0,30.10,North,360,0.0,0.0,64,0.00,,,0.00,Rainwise IP-100,2013-04-23 23:35:00,
2013-04-23 19:40:00,50.0,38.0,30.10,North,360,0.0,0.0,65,0.00,,,0.00,Rainwise IP-100,2013-04-23 23:40:00,
2013-04-23 19:45:00,50.0,38.0,30.10,NE,45,0.0,0.0,65,0.00,,,0.00,Rainwise IP-100,2013-04-23 23:45:00,
2013-04-23 19:50:00,50.0,38.0,30.10,NNE,22,0.0,0.0,65,0.00,,,0.00,Rainwise IP-100,2013-04-23 23:50:00,
2013-04-23 19:55:00,50.0,39.0,30.10,NE,45,1.0,2.0,66,0.00,,,0.00,Rainwise IP-100,2013-04-23 23:55:00,
2013-04-23 20:00:00,50.0,39.0,30.10,ENE,67,2.0,3.0,67,0.00,,,0.00,Rainwise IP-100,2013-04-24 00:00:00,
2013-04-23 20:05:00,49.0,38.0,30.10,ENE,67,5.0,6.0,67,0.00,,,0.00,Rainwise IP-100,2013-04-24 00:05:00,
2013-04-23 20:10:00,49.0,39.0,30.10,East,90,5.0,8.0,68,0.00,,,0.00,Rainwise IP-100,2013-04-24 00:10:00,
2013-04-23 20:15:00,49.0,39.0,30.09,ENE,67,7.0,9.0,68,0.00,,,0.00,Rainwise IP-100,2013-04-24 00:15:00,
2013-04-23 20:20:00,49.0,39.0,30.09,ENE,67,5.0,10.0,68,0.00,,,0.00,Rainwise IP-100,2013-04-24 00:20:00,
2013-04-23 20:25:00,49.0,39.0,30.08,ENE,67,7.0,10.0,69,0.00,,,0.00,Rainwise IP-100,2013-04-24 00:25:00,
2013-04-23 20:30:00,48.0,39.0,30.08,East,90,4.0,10.0,70,0.00,,,0.00,Rainwise IP-100,2013-04-24 00:30:00,
2013-04-23 20:35:00,48.0,39.0,30.09,East,90,4.0,6.0,71,0.00,,,0.00,Rainwise IP-100,2013-04-24 00:35:00,
2013-04-23 20:40:00,49.0,40.0,30.08,East,90,8.0,10.0,70,0.00,,,0.00,Rainwise IP-100,2013-04-24 00:40:00,
2013-04-23 20:45:00,48.0,39.0,30.08,East,90,6.0,8.0,71,0.00,,,0.00,Rainwise IP-100,2013-04-24 00:45:00,
2013-04-23 20:50:00,48.0,39.0,30.07,East,90,6.0,8.0,72,0.00,,,0.00,Rainwise IP-100,2013-04-24 00:50:00,
2013-04-23 20:55:00,48.0,39.0,30.07,East,90,6.0,8.0,72,0.00,,,0.00,Rainwise IP-100,2013-04-24 00:55:00,
2013-04-23 21:00:00,47.0,38.0,30.08,ENE,67,3.0,8.0,71,0.00,,,0.00,Rainwise IP-100,2013-04-24 01:00:00,
2013-04-23 21:05:00,47.0,38.0,30.08,East,90,3.0,6.0,72,0.00,,,0.00,Rainwise IP-100,2013-04-24 01:05:00,
2013-04-23 21:10:00,47.0,38.0,30.07,East,90,2.0,5.0,73,0.00,,,0.00,Rainwise IP-100,2013-04-24 01:10:00,
2013-04-23 21:15:00,46.0,38.0,30.07,East,90,3.0,4.0,74,0.00,,,0.00,Rainwise IP-100,2013-04-24 01:15:00,
2013-04-23 21:20:00,46.0,38.0,30.06,East,90,2.0,5.0,74,0.00,,,0.00,Rainwise IP-100,2013-04-24 01:20:00,
2013-04-23 21:25:00,46.0,38.0,30.06,East,90,2.0,5.0,74,0.00,,,0.00,Rainwise IP-100,2013-04-24 01:25:00,
2013-04-23 21:30:00,46.0,38.0,30.06,East,90,2.0,5.0,75,0.00,,,0.00,Rainwise IP-100,2013-04-24 01:30:00,
2013-04-23 21:35:00,46.0,39.0,30.06,ENE,67,0.0,3.0,76,0.00,,,0.00,Rainwise IP-100,2013-04-24 01:35:00,
2013-04-23 21:40:00,45.0,38.0,30.06,ENE,67,0.0,0.0,75,0.00,,,0.00,Rainwise IP-100,2013-04-24 01:40:00,
2013-04-23 21:45:00,45.0,38.0,30.06,ENE,67,0.0,0.0,75,0.00,,,0.00,Rainwise IP-100,2013-04-24 01:45:00,
2013-04-23 21:50:00,45.0,38.0,30.06,NNE,22,0.0,1.0,77,0.00,,,0.00,Rainwise IP-100,2013-04-24 01:50:00,
2013-04-23 21:55:00,45.0,38.0,30.06,NW,315,0.0,2.0,77,0.00,,,0.00,Rainwise IP-100,2013-04-24 01:55:00,
2013-04-23 22:00:00,45.0,38.0,30.06,NNW,337,0.0,0.0,77,0.00,,,0.00,Rainwise IP-100,2013-04-24 02:00:00,
2013-04-23 22:05:00,44.0,38.0,30.06,NW,315,0.0,0.0,81,0.00,,,0.00,Rainwise IP-100,2013-04-24 02:05:00,
2013-04-23 22:10:00,44.0,38.0,30.06,NE,45,0.0,0.0,81,0.00,,,0.00,Rainwise IP-100,2013-04-24 02:10:00,
2013-04-23 22:15:00,43.0,39.0,30.05,East,90,0.0,0.0,84,0.00,,,0.00,Rainwise IP-100,2013-04-24 02:15:00,
2013-04-23 22:20:00,43.0,39.0,30.05,East,90,0.0,0.0,84,0.00,,,0.00,Rainwise IP-100,2013-04-24 02:20:00,
2013-04-23 22:25:00,42.0,37.0,30.05,East,90,0.0,0.0,83,0.00,,,0.00,Rainwise IP-100,2013-04-24 02:25:00,
2013-04-23 22:30:00,42.0,37.0,30.05,East,90,0.0,0.0,83,0.00,,,0.00,Rainwise IP-100,2013-04-24 02:30:00,
2013-04-23 22:35:00,42.0,38.0,30.05,East,90,0.0,0.0,85,0.00,,,0.00,Rainwise IP-100,2013-04-24 02:35:00,
2013-04-23 22:40:00,42.0,39.0,30.05,East,90,0.0,0.0,88,0.00,,,0.00,Rainwise IP-100,2013-04-24 02:40:00,
2013-04-23 22:45:00,42.0,39.0,30.05,NNW,337,0.0,2.0,88,0.00,,,0.00,Rainwise IP-100,2013-04-24 02:45:00,
2013-04-23 22:50:00,42.0,38.0,30.05,NW,315,1.0,2.0,87,0.00,,,0.00,Rainwise IP-100,2013-04-24 02:50:00,
2013-04-23 22:55:00,42.0,38.0,30.05,NNW,337,0.0,2.0,87,0.00,,,0.00,Rainwise IP-100,2013-04-24 02:55:00,
2013-04-23 23:00:00,42.0,38.0,30.05,NNW,337,0.0,0.0,86,0.00,,,0.00,Rainwise IP-100,2013-04-24 03:00:00,
2013-04-23 23:05:00,41.0,38.0,30.05,NE,45,0.0,0.0,88,0.00,,,0.00,Rainwise IP-100,2013-04-24 03:05:00,
2013-04-23 23:10:00,41.0,38.0,30.05,East,90,0.0,0.0,87,0.00,,,0.00,Rainwise IP-100,2013-04-24 03:10:00,
2013-04-23 23:15:00,41.0,38.0,30.05,East,90,0.0,0.0,90,0.00,,,0.00,Rainwise IP-100,2013-04-24 03:15:00,
2013-04-23 23:20:00,41.0,38.0,30.04,East,90,0.0,0.0,90,0.00,,,0.00,Rainwise IP-100,2013-04-24 03:20:00,
2013-04-23 23:25:00,40.0,38.0,30.04,ENE,67,1.0,5.0,93,0.00,,,0.00,Rainwise IP-100,2013-04-24 03:25:00,
2013-04-23 23:31:00,40.0,39.0,30.03,NE,45,2.0,5.0,94,0.00,,,0.00,Rainwise IP-100,2013-04-24 03:31:00,
2013-04-23 23:36:00,41.0,39.0,30.03,NE,45,3.0,4.0,92,0.00,,,0.00,Rainwise IP-100,2013-04-24 03:36:00,
2013-04-23 23:41:00,41.0,39.0,30.03,ENE,67,3.0,5.0,91,0.00,,,0.00,Rainwise IP-100,2013-04-24 03:41:00,
2013-04-23 23:46:00,41.0,39.0,30.03,ENE,67,3.0,5.0,92,0.00,,,0.00,Rainwise IP-100,2013-04-24 03:46:00,
2013-04-23 23:51:00,41.0,39.0,30.02,NE,45,2.0,4.0,91,0.00,,,0.00,Rainwise IP-100,2013-04-24 03:51:00,
2013-04-23 23:56:00,41.0,38.0,30.02,NE,45,1.0,4.0,90,0.00,,,0.00,Rainwise IP-100,2013-04-24 03:56:00,